Погода в Покровке

Россия / Алтайский край     51°11′03″N   81°26′55″E
темп.,
°C
ветер,
м/с
пор.,
м/с
влажн.,
%
обл.,
%
осадки,
мм/ч
давл.,
гПа
погр.,
м
8 августа, пн
пн801:00+17с335028 0.0 100718
04:00+16св12512 0.0 100711
07:00+16юз005418 0.0 100811
10:00+23сз2235100 0.0 1008521
13:00+27ссз3226100 0.0 10072569
16:00+29ссв4321100 0.0 10063180
19:00+27с3424100 0.0 1006341
22:00+21с41040100 0.0 1007200
9 августа, вт
вт901:00+18св224662 0.0 100712
04:00+18всв225076 0.0 100716
07:00+17всв0152100 0.0 100711
10:00+24зюз1136100 0.0 1007528
13:00+28с3228100 0.0 10072451
16:00+25с223699 0.1 100754
19:00+28всв222892 0.1 10061934
22:00+21св4104834 0.0 1006209
10 августа, ср
ср1001:00+18ссв51159100 0.0 1006183
04:00+16св511662 0.0 1005177
07:00+16св51066100 0.0 1005162
10:00+25св574196 0.1 1005528
13:00+29ссв663068 0.4 10041403
16:00+31ссв7624100 0.0 10032046
19:00+29св563191 0.4 10031231
22:00+18зюз71379100 2.6 1007478
11 августа, чт
чт1101:00+17юв1192100 3.8 100726
04:00+16ююв3794100 0.0 1006148
07:00+16ююз11905 0.0 100715
10:00+20ю336892 0.0 1008536
13:00+24зюз225093 0.0 10081215
16:00+26ссз22415 0.0 10071179
19:00+22с345856 0.4 1008419
22:00+15юв248784 0.9 101084
12 августа, пт
пт1201:00+14ссв008666 0.9 101011
04:00+14св22865 0.0 101011
07:00+14св00840 0.0 101111
10:00+20с22660 0.0 1012538
13:00+26с454040 0.0 10102008
16:00+26с3539100 0.0 10091495
19:00+26ссв573895 0.0 1009574
22:00+20с45581 0.2 101063